Voltar ao catálogo

KUIPER-00383

AtivoComunicaçõesLEO
NORAD 69268·PAYLOAD·🇺🇸 United States

Lançado May 29, 2026 de Vandenberg Space Force Base

Loading…

Próximas Passagens (próximas 24 horas)

TLE

AtualizadoSource: CelesTrak SupGP

Época: Sep 14, 2026, 20:47 UTC

1 69268C 26118B   26257.86640046  .00005084  00000+0  66582-3 0  2578
2 69268  51.8988   1.6009 0000446 100.7667 231.4652 14.79910245    15

Acompanhe KUIPER-00383 em tempo real com AllMySat

Download on the App Store